This demonstration page uses our WeatherBlox Daily Observations layout. Learn more.

Left ArrowRight Arrow

38.89511, -77.03637

Hourly Observations for January 30, 2019

Temp ( °F °C ) Dew Point ( °F °C ) Humidity (%) Winds ( mph kmh ) Pressure ( in mb ) Visibility ( mi km ) Precip ( " mm )
12:52 am 00:52 Mostly Clear 27 -2.8 9 -12.8 46 46 NW 21 33 30.01 1016 10 16 0.00 0.00
1:52 am 01:52 Clear 26 -3.3 8 -13.3 46 46 NW 14 22 30.04 1017 10 16 0.00 0.00
2:52 am 02:52 Clear 25 -3.9 7 -13.9 46 46 NW 7 11 30.03 1017 10 16 0.00 0.00
3:52 am 03:52 Clear 24 -4.4 6 -14.4 46 46 NW 3 6 30.02 1017 10 16 0.00 0.00
4:52 am 04:52 Mostly Clear 23 -5 5 -15 46 46 NNW 6 9 30.01 1016 10 16 0.00 0.00
5:52 am 05:52 Mostly Clear 22 -5.6 7 -13.9 52 52 N 5 7 30.00 1016 10 16 0.00 0.00
6:52 am 06:52 Mostly Clear 23 -5 11 -11.7 60 60 SSE 6 9 30.01 1016 10 16 0.00 0.00
7:52 am 07:52 Mostly Sunny 24 -4.4 11 -11.7 57 57 S 9 15 30.01 1016 10 16 0.00 0.00
10:52 am 10:52 Mostly Sunny 34 1.1 12 -11.1 40 40 SSW 18 30 29.93 1014 10 16 0.00 0.00
11:52 am 11:52 Mostly Sunny 36 2.2 11 -11.7 35 35 SSW 26 43 29.88 1012 10 16 0.00 0.00
12:52 pm 12:52 Partly Cloudy 38 3.3 11 -11.7 33 33 WSW 22 35 29.86 1011 10 16 0.00 0.00
1:17 pm 13:17 Mostly Cloudy 37 2.8 11 -11.7 34 34 WSW 24 39 29.89 1012 10 16 0.00 0.00
1:34 pm 13:34 Windy with Snow Likely 27 -2.8 16 -8.9 63 63 NNW 29 46 29.92 1013 7 11 0.00 0.03
1:52 pm 13:52 Cloudy with Light Snow 26 -3.3 16 -8.9 66 66 NW 17 28 29.94 1014 7 11 0.00 0.03
2:16 pm 14:16 Mostly Cloudy 29 -1.7 13 -10.6 51 51 NW 21 33 29.95 1014 10 16 0.00 0.03
2:52 pm 14:52 Mostly Cloudy 29 -1.7 5 -15 36 36 NNW 26 43 29.98 1015 10 16 0.00 0.03
3:52 pm 15:52 Partly Cloudy 25 -3.9 0 -17.8 33 33 NNW 26 43 30.04 1017 10 16 0.00 0.00
4:52 pm 16:52 Partly Cloudy 22 -5.6 -2 -18.9 35 35 NNW 17 28 30.11 1020 10 16 0.00 0.00
5:52 pm 17:52 Partly Cloudy 19 -7.2 -4 -20 36 36 NW 22 35 30.16 1022 10 16 0.00 0.00
6:52 pm 18:52 Mostly Clear 18 -7.8 -6 -21.1 34 34 NW 15 24 30.22 1023 10 16 0.00 0.00
7:52 pm 19:52 Clear 16 -8.9 -7 -21.7 35 35 NNW 21 33 30.27 1025 10 16 0.00 0.00
8:52 pm 20:52 Clear 15 -9.4 -8 -22.2 35 35 NW 18 30 30.30 1026 10 16 0.00 0.00
9:52 pm 21:52 Clear 14 -10 -9 -22.8 35 35 NNW 15 24 30.32 1027 10 16 0.00 0.00
10:52 pm 22:52 Clear 13 -10.6 -11 -23.9 33 33 NNW 17 28 30.34 1027 10 16 0.00 0.00
11:52 pm 23:52 Clear 12 -11.1 -10 -23.3 36 36 NNW 9 15 30.34 1028 10 16 0.00 0.00

Powered by AerisWeather